Location: Audinghen
(50.8518°N, 1.6129°E)
Time: 09:48:17
(UTC+00:00)

CZ-4B R/B - Pass Details

Date: 07 August 2020
Orbit: 702 x 803 km, 98.9° (Epoch: 20 September)

Event Time Altitude Azimuth Distance (km) Brightness Sun altitude
Rises 02:34:41 0° 13° (NNE) 3,136 7.9 -14.7°
Reaches altitude 10° 02:36:59 10° 10° (N) 2,201 6.9 -14.5°
Maximum altitude 02:41:43 63° 290° (WNW) 788 3.5 -14.0°
Enters shadow 02:44:51 21° 214° (SW) 1,566 4.5 -13.7°
